GFSSE_sfc_wetblb_018.txt.gz
Wetbulb
73.09 75.66 76.53 76.05 76.07 75.70 76.23 75.06 75.29 75.68 75.54 75.50 75.70 76.01 76.35 75.83 75.81 75.94 75.84 75.62 75.51 75.45 75.61 75.39 76.04 75.51 75.79 75.78 75.75 75.64 75.36 75.23 75.86 75.78 75.97 75.98 75.97 76.14 75.94 75.94 75.78 75.56 75.59
73.56 75.01 76.60 76.32 76.11 75.52 75.85 75.20 75.27 75.13 75.49 75.72 75.25 75.13 75.13 75.15 75.23 75.72 76.12 76.22 75.52 75.44 75.35 75.33 75.33 75.80 75.38 75.67 75.57 75.49 75.19 75.42 75.50 75.25 75.11 75.77 75.89 75.35 75.40 75.09 75.17 75.42 75.49
73.23 74.60 76.24 76.80 76.11 75.98 75.00 76.06 75.97 75.10 74.84 73.27 72.95 73.47 73.74 73.63 73.64 73.80 74.04 74.18 75.45 75.56 75.32 75.10 75.08 75.33 75.03 75.19 75.42 75.03 75.09 75.23 74.95 74.71 73.98 75.51 75.26 74.49 74.56 74.55 74.78 75.20 74.70
73.92 74.57 74.90 76.66 76.40 75.95 76.25 75.32 74.78 74.10 73.36 71.82 71.58 71.54 71.56 71.58 71.94 72.13 72.19 72.51 73.76 74.43 75.22 75.43 74.90 74.65 74.78 74.75 74.97 75.23 74.93 75.28 74.20 73.47 74.75 74.62 74.36 74.39 73.38 73.12 73.39 74.60 74.11
74.13 74.12 75.39 76.37 76.77 76.16 74.98 74.14 73.82 73.27 72.49 71.84 71.58 70.91 70.91 70.73 70.91 71.19 71.23 71.36 71.95 72.97 73.37 73.94 75.08 74.86 74.72 74.37 74.50 74.63 75.35 74.28 72.98 74.20 74.63 75.15 74.78 73.86 73.35 72.62 73.16 73.69 72.92
73.92 74.30 75.87 76.48 76.34 75.24 74.24 73.74 73.02 72.32 72.21 71.05 72.55 71.16 70.38 70.74 70.42 70.60 70.69 70.97 71.63 72.03 70.85 71.85 73.53 74.22 74.43 74.78 74.33 74.53 74.63 72.91 73.61 74.93 75.15 74.24 74.76 73.85 73.32 72.72 72.74 72.70 72.51
72.83 73.53 74.78 76.49 76.21 74.71 73.84 72.71 72.72 73.18 71.97 70.89 70.54 70.19 69.79 69.59 69.39 69.06 69.54 69.04 70.50 70.10 69.13 70.00 71.37 72.03 72.70 73.77 74.34 74.80 73.62 72.51 73.70 73.96 73.99 74.04 73.85 73.81 73.65 72.42 71.72 71.78 71.76
72.00 72.56 73.52 75.92 75.46 74.32 72.46 72.03 72.99 72.43 71.16 70.19 69.64 69.19 69.09 68.96 68.87 68.64 67.79 67.74 68.21 68.32 67.94 67.65 69.01 69.90 70.53 71.75 73.88 73.78 72.56 72.55 73.50 72.88 72.66 73.29 72.43 73.14 73.56 73.37 71.88 71.69 71.94
71.78 71.79 72.49 74.48 74.72 72.88 71.39 71.32 71.43 70.89 70.04 68.93 68.32 68.02 67.64 67.97 67.66 67.35 66.85 66.59 66.73 66.54 66.50 65.90 66.19 67.28 67.80 68.70 70.16 71.76 71.60 71.59 72.37 71.96 71.60 70.95 71.91 72.42 72.84 72.51 72.68 71.75 71.83
71.39 71.10 71.50 73.07 73.89 71.97 70.35 70.42 70.01 69.03 68.03 66.97 66.23 66.15 66.11 66.06 65.82 64.90 64.87 64.83 65.03 64.90 64.54 64.07 63.27 64.34 65.02 65.24 65.88 66.47 67.18 69.37 71.76 71.05 70.85 69.54 72.10 72.73 72.28 72.60 71.90 72.20 71.97
70.23 70.88 71.35 71.33 72.36 70.85 69.01 69.06 68.41 67.29 66.20 64.86 63.40 62.75 62.56 63.23 63.70 63.83 63.19 63.11 62.87 62.52 62.24 61.45 60.63 59.75 59.72 61.25 61.79 62.38 65.65 67.39 69.54 69.40 68.15 67.69 70.73 71.49 71.58 72.39 72.58 72.32 71.97
68.94 70.10 71.03 70.50 70.52 69.36 66.98 67.28 65.90 65.50 64.25 61.56 60.38 59.36 59.50 60.42 61.13 62.04 61.26 60.38 60.16 59.73 59.06 58.33 57.47 56.99 58.19 59.94 60.65 60.91 62.52 63.94 66.02 66.01 65.54 65.83 67.64 68.85 68.98 69.29 69.60 69.98 70.80
68.76 70.18 70.50 69.98 69.69 68.69 66.15 65.52 63.65 60.72 58.77 58.07 57.57 58.09 58.71 58.43 58.18 57.98 58.00 57.06 56.79 54.73 56.15 55.32 55.81 56.16 56.27 57.46 57.59 57.67 58.48 59.90 62.03 62.81 60.57 61.75 62.93 64.56 66.27 66.72 67.30 67.63 68.63
68.23 69.34 70.13 69.63 68.79 67.87 66.01 63.06 60.35 58.36 57.78 57.22 57.19 57.01 57.33 57.01 56.22 56.03 56.15 55.94 56.24 56.14 54.97 55.42 54.71 54.33 54.43 54.33 53.95 53.70 55.07 56.29 58.19 59.44 58.32 58.03 59.17 60.71 62.46 63.49 64.07 64.48 65.29
67.37 68.88 69.79 69.92 67.74 66.93 64.46 61.80 59.57 58.52 57.49 57.50 56.81 56.77 57.26 56.99 56.01 55.79 55.59 55.56 55.50 55.71 55.26 54.53 54.54 53.99 53.06 52.27 52.24 52.58 53.03 52.61 53.96 55.56 56.62 54.87 56.10 57.68 59.55 60.89 61.21 61.70 62.46
67.51 68.39 69.47 69.09 67.12 65.95 63.44 61.18 59.32 58.85 58.08 57.38 57.16 56.76 56.77 56.98 56.25 55.65 55.06 55.10 55.05 55.27 55.38 54.89 54.16 54.22 53.69 53.11 52.06 51.78 52.86 53.17 53.34 52.92 54.62 55.12 53.05 54.59 56.85 57.88 58.57 58.90 59.96
67.28 68.34 68.57 68.22 66.64 64.46 62.12 60.82 59.70 59.12 57.68 57.24 57.17 56.54 56.40 56.86 56.21 55.60 54.97 54.57 54.67 54.81 53.43 54.29 53.44 54.03 53.94 53.28 52.38 53.14 53.16 53.33 53.52 52.14 53.75 53.90 54.06 51.86 53.07 55.05 56.02 56.67 57.75
66.36 67.18 68.08 66.96 65.35 63.34 61.57 60.51 59.28 58.83 57.66 57.36 57.06 56.43 56.00 56.22 56.27 55.52 54.71 54.31 54.67 54.50 54.34 53.83 53.82 53.57 53.49 53.35 53.15 53.56 53.45 53.21 52.34 52.02 52.77 52.78 53.14 52.90 51.72 52.65 54.02 54.73 55.81
64.19 65.78 67.06 67.00 63.94 62.61 61.80 60.35 59.53 58.53 57.48 57.22 56.84 56.36 55.88 55.83 55.65 55.34 54.75 54.59 54.46 53.89 53.61 53.00 53.13 53.60 52.93 53.05 51.28 52.36 52.23 51.91 51.86 50.89 51.81 52.08 52.81 53.19 52.74 51.63 51.80 51.63 53.56
62.12 63.67 65.86 67.11 64.19 63.27 61.85 59.98 59.01 57.52 57.07 57.15 56.22 56.12 55.50 55.44 55.09 54.84 54.48 54.23 53.94 53.28 52.92 52.47 51.92 52.72 52.75 52.05 49.82 49.92 51.34 52.14 52.13 51.65 51.44 51.47 51.79 52.01 52.51 52.36 53.13 52.83 51.52
60.75 61.50 62.83 64.62 64.19 63.77 60.93 58.17 56.94 55.52 55.62 55.77 55.46 55.47 55.45 55.13 54.51 54.48 53.96 53.61 53.87 52.81 52.51 52.42 51.96 50.89 51.51 52.05 50.18 50.61 50.88 50.54 50.06 51.14 51.35 51.01 50.90 51.35 51.75 51.69 51.93 52.01 52.30
58.95 60.25 60.74 62.02 63.65 63.33 61.12 60.07 58.60 57.14 56.50 55.81 55.14 54.55 55.11 54.78 54.05 53.46 53.41 52.99 53.31 52.71 52.31 51.79 51.45 50.46 51.30 51.56 48.66 48.53 48.12 48.61 50.53 49.92 50.74 50.65 49.97 50.74 50.67 50.89 51.23 51.46 51.96
58.15 58.78 59.49 60.36 61.23 62.72 60.08 59.70 58.03 57.45 55.86 53.69 53.28 53.05 53.46 54.07 53.60 52.89 52.81 52.71 52.68 52.73 51.56 51.81 51.38 50.62 48.96 50.36 48.96 47.74 45.96 45.97 45.90 50.32 49.08 49.64 49.83 50.03 50.43 50.63 50.89 51.10 51.43
57.86 58.89 58.96 59.59 59.65 60.75 59.99 58.36 55.84 54.69 51.90 53.00 53.36 53.39 52.87 53.02 52.93 52.57 52.24 52.33 52.12 52.21 51.56 51.48 51.07 50.45 49.71 47.79 49.27 48.65 48.88 47.08 44.20 43.38 49.06 48.38 49.25 48.86 49.70 50.31 50.30 50.68 51.15
56.48 57.07 58.18 58.51 58.59 59.02 58.77 58.40 56.27 55.18 56.03 55.39 54.03 53.07 52.55 52.08 52.56 52.36 51.87 51.60 51.43 51.63 51.46 50.91 50.05 49.87 49.68 48.54 47.95 48.19 47.57 47.52 47.03 44.20 42.36 45.62 47.83 48.87 49.38 49.67 50.06 50.30 50.87
56.65 56.80 57.21 57.35 57.14 58.46 58.41 57.58 56.59 56.11 56.06 55.65 54.02 52.40 51.83 51.82 51.71 51.80 51.51 51.39 51.48 51.35 51.00 50.66 50.59 49.88 49.50 48.79 48.65 48.20 46.85 45.56 45.07 44.44 43.16 43.91 43.98 46.22 48.37 49.43 49.64 50.02 50.73

GFSSE_sfc_wetblb_021.txt.gz
Wetbulb
72.15 75.54 76.48 75.76 76.15 75.98 75.18 75.08 75.54 75.28 75.40 75.81 75.94 76.41 76.47 76.59 76.76 76.68 76.25 75.80 75.66 75.66 75.71 75.70 75.68 75.63 75.91 75.77 75.73 75.54 75.35 75.72 75.88 76.00 76.06 76.17 76.23 75.93 75.81 75.54 76.11 74.81 75.87
72.37 74.28 76.41 76.14 75.68 76.41 74.98 74.79 75.36 75.22 75.69 75.09 74.77 74.89 74.90 74.62 74.93 74.99 75.13 76.04 75.62 75.58 75.51 75.49 75.63 75.41 75.72 75.88 75.68 75.36 75.30 75.33 75.25 74.96 75.26 76.08 75.92 75.48 75.32 75.32 76.01 75.37 75.65
72.69 74.53 75.64 76.79 75.65 76.30 75.84 76.40 75.09 74.95 73.43 73.35 73.47 73.42 73.18 73.47 73.66 73.66 73.67 74.69 75.15 75.68 75.35 75.28 75.39 75.31 75.11 75.46 75.32 75.19 75.27 74.93 74.04 73.76 75.08 74.84 74.27 74.82 74.43 74.45 74.72 74.96 74.75
73.08 74.68 75.28 76.79 76.11 75.52 76.10 75.44 74.69 74.09 72.23 71.87 71.82 71.75 71.82 71.87 72.05 72.04 72.40 73.07 74.19 74.57 74.71 75.36 74.97 74.87 74.86 74.92 75.37 75.26 75.29 73.83 73.09 74.08 74.37 73.90 73.69 74.48 73.66 73.69 73.73 74.03 74.18
73.09 74.31 76.08 77.42 76.82 76.50 75.32 74.67 73.84 73.07 71.84 71.68 70.99 71.10 71.10 71.23 71.54 71.90 71.82 72.22 72.96 72.38 72.93 74.59 74.86 75.04 74.97 74.52 74.55 75.53 74.51 73.18 73.71 75.15 74.37 74.50 74.31 73.66 73.79 73.50 73.16 73.34 73.28
74.14 74.43 75.49 76.67 76.75 75.33 74.46 73.86 73.28 72.83 72.18 71.94 71.49 70.63 70.92 70.58 70.45 70.20 70.57 72.07 71.72 70.50 71.92 72.67 73.05 73.61 74.45 74.65 74.47 74.97 73.54 73.38 74.08 73.82 74.00 74.25 74.03 74.04 73.57 72.99 72.95 72.44 72.08
73.81 74.18 74.30 76.63 75.96 74.82 74.20 73.47 72.84 72.65 71.77 71.67 70.90 69.85 69.82 69.76 69.51 69.55 69.10 69.31 69.76 69.03 69.22 70.82 71.63 72.40 73.00 74.45 74.78 73.99 72.93 73.13 72.78 72.89 72.90 72.58 73.21 73.86 74.17 72.93 72.13 71.76 71.61
73.13 72.95 74.29 76.50 75.74 74.74 73.60 73.13 73.25 72.49 71.22 70.52 69.75 69.59 69.23 69.38 68.83 68.18 67.89 67.92 68.09 67.93 67.69 68.33 69.45 70.14 71.13 73.43 74.08 73.08 72.89 73.36 73.01 72.19 71.34 72.30 72.33 72.69 73.35 73.40 72.11 71.55 71.78
71.71 71.03 71.98 73.94 75.09 74.05 72.80 73.09 73.24 71.83 70.81 69.91 69.28 68.49 68.50 68.48 67.77 67.26 66.70 66.72 66.71 66.71 66.32 66.18 67.17 67.80 68.57 70.02 71.13 71.73 71.56 72.38 71.51 71.35 70.25 71.21 72.55 71.81 72.51 72.58 72.48 72.02 71.61
70.00 70.10 69.97 73.42 73.81 73.23 71.59 72.13 71.95 71.00 69.82 68.66 68.03 67.38 67.27 67.22 66.13 65.31 65.77 65.11 65.09 64.76 64.54 63.69 64.06 65.20 65.77 66.06 66.45 66.81 67.36 70.64 70.69 70.87 68.97 69.43 71.79 72.74 72.73 72.74 72.15 72.37 71.94
69.40 69.87 69.62 71.42 72.79 72.42 71.21 70.66 70.26 69.44 68.24 67.03 66.16 66.18 65.65 64.91 64.95 64.35 63.71 63.39 63.05 62.65 62.03 61.23 60.66 59.64 61.26 63.21 62.92 62.75 65.47 68.98 69.43 68.87 67.54 67.74 70.19 70.96 71.19 71.25 71.68 72.04 72.52
68.33 69.06 69.51 69.87 71.11 71.84 70.45 69.80 67.83 66.57 65.54 64.31 62.83 61.43 61.70 61.99 62.83 63.07 62.02 61.30 60.70 59.70 58.67 57.80 57.02 57.16 60.42 60.48 61.03 61.97 63.57 65.84 66.96 66.12 63.52 64.33 66.46 68.39 68.94 68.97 69.62 70.10 70.71
68.52 69.05 69.23 69.62 69.63 70.33 69.58 68.59 66.36 65.26 63.83 61.95 60.58 59.78 60.10 61.03 60.35 61.07 59.37 58.62 57.55 56.65 56.79 57.05 56.95 56.51 56.88 58.02 58.16 58.50 59.69 60.84 62.49 63.34 59.88 61.00 62.56 64.54 65.58 66.02 66.28 66.51 67.43
67.44 68.64 69.33 69.49 68.93 68.89 69.46 67.42 66.24 64.00 60.39 58.97 58.86 58.82 59.32 58.53 57.94 57.60 57.25 57.22 57.00 56.68 55.66 55.80 55.25 55.15 55.26 54.49 53.91 53.80 54.99 56.57 58.27 59.97 56.94 57.83 59.55 61.17 62.66 63.49 63.70 64.16 64.80
66.78 67.90 69.21 69.93 68.78 68.25 67.80 67.14 65.98 61.99 58.82 58.82 58.73 58.43 58.87 58.78 57.56 57.52 57.04 56.66 56.30 56.15 55.61 55.10 54.98 54.48 53.82 52.92 52.74 52.86 53.08 53.03 54.03 55.42 56.69 55.20 56.27 58.10 59.57 60.54 61.01 61.58 62.29
66.44 67.07 69.00 69.72 69.21 68.00 67.02 66.23 64.63 61.70 59.59 59.43 59.03 58.60 58.50 58.81 58.02 57.48 56.83 56.47 56.06 55.75 55.45 54.89 54.35 54.22 53.71 53.26 52.76 52.41 52.87 53.09 53.26 53.09 54.31 54.91 54.08 54.45 56.52 57.46 58.25 58.89 59.65
65.71 66.73 67.57 69.23 69.82 67.89 66.36 65.91 64.95 62.96 60.16 59.39 59.03 58.50 58.07 58.98 58.07 57.41 56.83 56.24 55.97 55.58 54.20 54.25 53.25 53.50 53.42 53.00 52.42 52.69 52.77 52.75 52.84 51.92 53.24 54.13 54.49 53.78 53.57 54.29 55.76 56.48 57.31
64.25 65.35 66.93 68.63 69.18 68.47 66.06 65.64 63.64 62.14 60.70 59.70 58.78 58.56 57.74 58.05 58.20 57.33 56.78 56.21 56.27 55.54 54.95 54.29 53.78 53.12 52.95 52.64 52.31 52.89 52.60 52.37 52.17 51.51 52.50 52.97 53.65 53.26 53.88 52.89 53.12 53.83 55.02
61.87 63.39 65.08 67.73 68.24 68.22 66.49 64.48 62.98 61.62 61.06 59.69 58.92 58.61 57.88 57.73 57.61 57.26 56.67 56.45 56.06 55.25 54.52 54.02 53.48 53.19 52.42 52.56 52.15 51.43 52.28 52.07 52.36 51.68 51.43 52.64 53.67 53.64 53.73 53.24 52.27 53.31 52.77
60.37 61.78 63.43 66.08 67.70 67.82 66.68 64.21 62.92 61.64 61.10 60.42 59.22 58.85 57.50 58.07 57.33 57.47 57.19 56.80 55.39 54.80 54.26 53.92 52.86 52.82 52.38 51.85 50.58 50.13 51.70 52.05 52.30 52.41 51.67 51.97 53.27 52.95 53.58 53.77 54.38 53.40 52.43
59.64 60.45 62.05 63.33 66.00 67.45 65.50 63.02 61.54 60.08 60.30 59.84 59.81 58.61 58.23 57.40 57.08 57.46 57.06 56.10 56.06 55.00 54.15 54.21 52.89 52.26 51.77 51.90 50.22 51.33 51.28 51.23 50.50 51.57 52.08 51.35 52.95 52.20 52.40 53.38 53.60 53.51 52.75
58.82 59.70 60.26 61.39 63.56 66.52 65.94 64.42 62.84 60.96 60.70 60.09 60.34 59.31 58.93 57.84 56.99 55.93 56.12 55.97 55.38 55.09 54.50 53.56 54.14 51.70 51.44 51.35 48.56 48.90 47.90 49.46 50.28 50.37 51.11 50.43 50.32 51.42 51.06 51.37 51.25 52.07 53.41
57.49 58.14 59.20 59.97 61.28 63.79 66.54 65.17 63.34 62.11 61.30 59.38 58.60 57.83 57.67 57.49 56.90 55.96 55.75 55.12 54.83 55.09 54.05 54.16 53.72 53.61 50.65 51.03 49.65 47.96 46.12 46.07 47.39 49.89 49.81 50.11 50.38 50.48 50.86 51.04 50.94 51.57 51.59
55.96 57.71 58.74 58.51 59.48 61.26 64.71 64.85 62.74 60.37 58.53 58.53 58.08 57.53 56.62 56.92 56.21 55.50 55.00 54.98 54.60 54.67 53.60 53.78 53.23 52.46 52.19 49.60 49.75 48.93 48.59 47.45 44.38 43.84 48.94 49.31 49.94 48.91 50.03 51.27 50.95 50.78 51.25
54.89 55.75 57.24 58.04 57.89 59.88 60.37 64.03 62.77 60.61 60.52 59.89 58.26 56.33 56.19 56.07 56.08 55.15 54.46 54.30 54.16 54.29 53.55 53.20 52.39 51.07 51.43 50.25 50.04 48.96 48.27 48.01 47.48 44.77 42.63 46.05 48.64 49.49 49.93 50.01 50.55 50.87 51.18
54.36 55.77 57.44 56.48 56.86 58.35 60.41 61.33 62.86 60.69 59.85 58.49 56.85 55.77 55.50 54.96 54.82 54.60 54.18 54.12 54.18 53.86 53.42 53.26 52.70 51.84 50.81 50.12 50.48 49.68 48.10 46.66 46.04 45.62 44.17 44.49 44.68 46.91 48.74 49.84 50.38 50.86 51.45

GFSSE_sfc_wetblb_027.txt.gz
Wetbulb
71.96 74.39 77.12 76.70 76.23 75.59 76.20 75.86 76.13 76.22 76.19 76.15 75.97 76.08 75.92 75.92 76.46 76.56 76.16 75.99 76.13 76.15 75.98 75.77 76.23 76.52 76.41 76.20 75.87 75.52 75.97 76.00 75.95 76.25 76.08 76.10 76.41 76.07 75.70 75.89 76.00 73.69 74.80
73.17 74.71 77.19 76.94 76.92 75.62 76.13 75.81 76.08 75.50 75.23 75.10 75.05 75.12 74.97 74.83 74.91 75.55 75.78 75.89 75.65 75.89 75.90 75.69 75.60 76.01 76.03 75.83 75.58 75.19 75.22 75.18 74.90 75.05 75.36 75.11 75.49 75.87 75.34 75.49 75.98 73.88 74.39
73.09 74.68 75.98 76.85 76.64 75.29 75.83 75.62 75.05 74.81 74.46 74.15 73.99 74.06 73.96 73.90 73.83 74.44 75.29 75.07 75.55 75.55 75.44 75.56 75.31 75.36 75.51 75.61 75.42 74.86 74.45 74.31 74.03 74.57 74.97 72.47 73.04 75.25 74.76 75.22 75.81 74.95 74.12
73.23 74.10 75.17 76.50 77.33 76.37 75.81 75.31 74.30 73.81 73.45 73.19 72.83 72.66 72.65 72.99 72.99 73.69 73.49 72.97 73.84 75.44 75.03 75.39 75.05 74.87 75.09 75.48 75.06 74.51 74.79 74.96 75.09 74.93 72.92 72.46 72.42 74.81 74.42 74.38 74.74 74.59 73.83
71.79 74.17 75.24 77.45 77.12 76.55 75.93 74.87 73.79 73.07 72.30 72.03 71.76 71.56 71.79 71.72 71.81 72.23 71.78 71.89 73.04 73.10 73.94 74.54 74.91 74.97 74.70 75.27 74.81 74.80 75.00 75.30 74.58 73.59 72.53 71.75 71.23 73.74 74.24 73.77 73.95 74.01 73.14
71.06 74.23 76.66 77.48 76.78 76.05 75.52 74.73 73.30 72.62 71.60 71.59 71.73 71.24 70.86 70.69 70.53 71.09 70.59 69.94 70.81 71.45 71.98 72.47 72.72 73.90 74.49 75.11 74.28 74.39 74.79 74.43 73.66 71.84 70.77 71.76 71.59 73.92 73.41 73.28 73.10 72.76 72.76
72.53 74.40 75.80 77.32 76.65 75.96 75.29 74.36 73.26 72.68 72.29 71.04 70.62 70.51 70.34 69.97 69.63 69.50 69.49 68.97 68.90 69.79 70.46 70.72 71.27 72.86 74.92 74.53 73.81 73.85 73.95 73.59 71.05 70.67 70.27 70.30 70.72 73.66 73.75 72.84 72.37 72.32 72.15
72.66 74.67 75.46 77.45 76.80 75.86 75.07 74.16 73.47 72.58 72.41 70.49 70.55 70.38 70.00 69.27 68.75 68.59 68.45 68.05 67.75 67.89 68.45 69.18 70.29 71.45 73.81 73.99 73.39 73.20 73.98 72.97 70.27 69.37 70.09 70.76 72.13 72.63 72.81 73.01 72.40 71.89 71.87
72.16 73.05 74.43 74.71 75.07 75.86 75.22 73.97 73.22 72.68 71.52 70.61 70.24 70.09 69.41 68.86 67.89 67.59 67.67 67.27 66.96 66.85 67.20 67.40 67.98 69.55 71.19 71.16 71.27 71.46 71.74 72.09 67.45 68.20 68.77 70.27 72.66 73.37 72.71 72.09 72.67 72.31 71.80
70.77 72.01 73.28 72.93 73.10 72.32 72.07 74.74 73.49 72.36 71.34 70.45 69.83 69.66 69.04 68.11 67.01 67.04 66.53 66.13 65.85 65.33 65.29 65.54 65.75 66.43 67.46 68.21 67.66 67.71 68.19 69.82 65.58 65.01 65.38 67.71 71.47 71.55 71.93 72.73 72.62 72.55 72.67
67.34 70.21 72.15 72.12 71.66 70.77 69.95 71.97 73.33 72.72 71.19 70.28 68.72 69.18 67.22 61.52 62.16 62.78 64.54 64.85 64.56 63.95 63.48 62.80 62.05 62.00 63.34 64.29 64.89 64.88 66.67 64.24 62.64 62.05 63.26 68.55 68.61 70.48 71.29 71.59 71.54 71.47 71.55
62.23 63.30 70.49 71.42 71.07 69.85 70.65 70.37 68.65 68.41 66.10 64.00 63.76 62.81 61.72 59.79 59.08 61.05 62.57 63.63 62.70 61.57 60.92 60.42 59.30 58.96 59.30 56.17 54.29 58.75 55.96 61.20 59.73 59.41 61.39 66.38 66.88 67.92 68.40 68.54 69.27 69.42 69.84
62.56 62.58 66.24 70.37 70.19 69.49 69.09 69.09 67.65 65.86 63.05 61.84 61.27 60.59 58.99 59.24 59.43 57.19 55.86 56.25 53.09 58.17 52.53 54.03 51.48 50.15 49.57 50.80 50.70 51.57 52.14 56.01 55.65 56.93 61.30 64.11 65.06 66.04 66.01 65.86 66.35 67.22 68.14
61.77 63.18 63.65 69.19 69.24 68.99 67.76 67.61 66.36 65.00 63.02 60.70 59.23 58.76 54.14 54.15 54.20 53.09 52.69 51.54 49.37 50.10 50.27 48.55 47.71 48.37 48.14 46.86 44.88 45.83 46.79 51.20 52.81 53.81 58.27 61.99 62.45 63.56 63.75 63.84 64.20 64.70 65.37
60.75 62.05 63.09 63.30 68.52 67.88 66.34 66.27 64.45 63.00 62.58 59.98 57.38 56.11 54.21 52.58 52.06 52.47 50.97 50.98 49.39 48.30 47.07 46.75 46.80 46.67 45.24 45.44 45.46 45.24 44.43 46.59 50.51 51.10 51.32 58.55 59.41 59.96 60.51 61.08 61.80 62.37 62.81
60.92 61.34 63.87 63.97 63.46 64.81 65.03 65.02 63.56 60.57 61.10 56.25 54.05 53.90 53.52 52.33 50.92 49.87 48.98 48.85 48.37 47.43 47.30 47.02 46.39 45.71 45.02 44.79 45.70 45.80 45.05 44.89 47.92 49.51 50.14 51.83 57.05 56.90 57.32 57.89 58.39 59.36 60.25
58.71 60.34 63.64 64.43 64.55 62.46 63.39 63.43 62.76 59.61 57.15 53.11 52.19 52.03 52.70 52.16 50.39 49.58 48.64 48.02 47.76 47.62 47.50 46.27 45.02 45.13 44.88 45.66 43.92 44.46 45.57 44.89 44.96 47.91 49.51 49.82 52.23 56.32 55.63 55.17 55.54 56.34 57.32
53.38 55.03 59.08 65.63 65.25 64.84 61.02 63.09 63.02 59.98 55.70 53.60 52.27 51.39 51.75 52.71 51.49 49.59 48.74 48.33 48.45 47.60 46.55 45.48 44.62 44.28 44.15 44.10 43.19 43.48 44.17 45.22 45.08 44.59 47.58 48.56 48.80 50.00 53.87 53.99 53.48 53.58 54.18
52.67 53.33 54.74 56.02 58.61 64.33 63.47 60.64 62.20 60.77 56.17 53.73 52.54 51.72 51.19 52.49 52.61 49.97 49.20 48.79 48.72 47.16 46.18 46.75 45.42 44.85 43.77 43.96 44.87 43.83 43.27 43.76 44.55 46.38 44.97 46.84 46.71 47.58 48.39 53.37 53.47 53.18 54.29
51.68 52.20 52.62 54.39 54.93 56.27 60.73 59.87 57.93 57.21 54.53 53.32 52.75 52.73 51.78 51.58 52.24 50.25 49.47 49.16 48.01 46.82 46.13 45.68 45.03 44.59 44.75 44.52 48.06 45.41 41.76 42.95 43.74 43.64 43.83 46.64 46.37 47.15 46.65 46.92 46.11 47.32 54.38
51.04 51.30 51.21 52.07 52.91 54.10 54.19 54.50 56.58 56.58 56.26 53.31 52.97 53.67 52.83 52.28 51.82 50.24 49.56 48.56 47.90 47.67 46.55 45.90 44.52 43.96 43.19 43.02 42.12 41.68 42.42 42.57 42.31 43.10 43.59 43.81 44.78 46.31 45.63 46.53 45.45 45.72 46.88
48.89 50.57 50.57 50.80 51.77 51.81 52.77 53.13 54.85 57.87 55.48 57.01 54.89 53.16 53.26 52.74 52.21 50.85 50.15 48.86 47.69 46.78 46.06 45.54 44.62 43.08 43.15 43.05 40.49 39.23 37.62 41.20 40.72 42.21 42.64 44.28 42.79 44.53 44.90 46.07 44.63 44.97 44.76
47.62 48.47 49.79 50.05 50.61 52.00 51.72 51.68 53.77 54.34 56.06 53.61 52.07 51.83 52.07 52.61 52.26 52.41 50.60 49.73 48.31 47.99 47.28 45.45 44.55 43.84 42.26 42.76 41.80 40.39 36.80 36.52 38.27 40.33 40.40 41.87 41.35 42.26 42.28 43.30 44.00 44.25 43.78
47.39 48.69 48.76 48.97 49.84 52.33 52.26 51.47 48.59 48.60 50.28 54.64 54.55 55.26 53.40 52.42 52.23 52.51 51.46 50.50 49.48 48.71 46.76 47.51 46.57 44.13 42.83 41.55 41.11 43.26 39.84 39.23 36.17 36.27 39.71 40.02 40.97 42.03 41.40 41.71 42.85 43.49 43.33
46.22 47.32 48.55 48.04 48.92 49.65 50.08 50.67 50.21 47.98 48.99 52.15 55.51 53.93 53.70 50.97 52.03 52.21 51.43 50.49 49.63 48.72 48.93 47.05 45.89 44.81 44.15 42.65 40.69 39.67 38.22 38.27 36.90 36.23 34.62 37.83 39.91 40.36 41.29 41.13 41.15 41.16 42.47
45.18 45.73 46.62 47.08 47.94 48.60 48.47 48.84 49.89 49.69 48.54 48.38 50.44 52.80 52.39 53.36 51.14 51.52 51.39 51.03 50.54 49.65 47.81 47.91 46.81 45.24 44.38 42.96 42.51 40.98 39.95 38.93 37.77 36.76 35.08 35.97 36.67 38.81 39.85 40.62 40.59 41.60 42.35

GFSSE_sfc_wetblb_030.txt.gz
Wetbulb
71.08 74.01 76.73 76.37 75.85 76.57 76.07 76.45 76.41 76.58 76.35 76.22 76.21 76.06 76.07 76.26 76.28 75.92 75.90 76.03 76.06 75.97 75.54 76.20 76.20 76.05 76.12 75.63 75.42 75.52 75.70 75.54 75.58 75.65 75.67 75.67 75.96 75.73 75.58 75.22 74.65 72.70 73.84
72.49 74.75 76.92 76.35 76.07 76.17 75.80 76.02 75.74 75.79 75.48 75.45 75.40 75.27 75.06 75.26 75.57 75.85 75.77 75.45 75.83 75.81 75.49 75.37 75.95 75.71 75.69 75.35 75.08 75.15 75.04 74.84 75.13 75.10 75.06 75.33 74.70 75.29 75.19 75.02 75.14 72.73 73.64
73.15 74.55 75.93 76.92 75.89 75.94 75.92 75.72 75.15 74.92 74.75 74.65 74.67 74.42 74.15 73.96 74.72 74.77 75.04 75.47 75.34 75.34 75.35 75.01 75.26 75.24 75.51 75.07 74.70 74.76 74.69 74.57 74.50 74.59 74.30 72.25 73.08 74.87 74.77 74.48 74.50 73.96 73.48
73.27 74.63 74.98 76.81 76.30 75.78 75.65 75.21 74.66 74.29 73.98 73.59 73.40 73.30 73.31 73.18 73.72 73.86 73.35 74.10 75.01 75.24 74.96 74.87 74.61 74.98 75.24 74.68 74.90 74.97 74.86 75.05 74.87 74.22 71.84 71.82 72.61 74.45 74.33 74.38 74.04 73.87 73.66
72.65 74.34 74.40 77.27 76.82 76.48 75.49 74.74 74.05 73.56 73.28 72.47 71.86 71.73 71.80 72.22 72.60 72.09 72.36 72.84 73.24 73.56 74.34 74.84 74.75 74.37 75.01 74.74 74.86 75.03 75.13 74.90 74.48 73.00 71.66 70.94 70.96 73.42 73.85 73.65 73.94 73.15 73.02
71.51 73.73 75.93 77.43 76.60 76.59 75.71 74.43 73.61 72.74 72.10 71.54 71.35 71.23 70.86 71.23 71.36 70.67 70.79 71.98 71.62 71.70 71.97 72.38 73.34 74.20 74.88 74.34 74.52 75.08 74.99 74.43 72.97 70.91 70.04 71.76 71.30 73.33 73.26 73.00 72.67 72.68 72.69
71.54 73.44 75.73 77.07 76.40 76.13 75.51 74.46 73.43 72.15 71.74 71.73 71.12 70.68 70.43 70.04 70.34 70.09 69.30 69.85 70.60 70.94 71.09 70.99 71.70 73.04 74.92 73.88 73.91 74.01 74.24 73.08 69.50 69.26 69.71 69.11 70.26 73.45 73.39 72.45 72.24 72.13 72.34
72.45 73.96 75.00 76.90 76.93 76.09 75.44 74.65 73.42 72.80 71.60 71.00 70.59 70.18 70.00 69.40 69.24 69.10 68.64 68.28 68.69 69.32 69.94 70.09 71.33 73.33 74.05 73.55 73.28 73.83 73.18 72.37 69.30 68.35 69.14 69.15 71.43 72.28 72.53 72.70 72.02 71.75 71.84
73.04 73.50 74.14 74.99 75.69 76.48 75.99 74.75 73.60 72.87 71.89 70.63 70.44 70.19 69.84 68.90 68.40 68.36 68.01 67.65 67.52 67.69 67.99 68.72 70.31 71.58 72.02 71.80 71.84 72.05 72.09 70.51 65.99 66.17 68.15 69.37 72.88 73.00 72.54 72.03 72.49 71.93 71.74
72.42 73.34 73.90 74.23 73.96 73.30 72.98 74.99 73.58 72.97 71.91 70.75 70.30 70.07 69.47 68.58 67.66 67.85 67.30 66.92 66.60 66.76 66.99 66.85 67.77 69.69 70.14 69.78 69.10 68.48 69.51 67.82 64.69 65.13 65.60 67.49 71.20 71.24 72.23 72.60 72.63 72.52 72.35
70.33 71.61 72.92 72.43 72.05 71.65 70.98 72.32 73.79 72.75 71.60 70.76 69.87 69.96 67.92 62.00 62.80 63.59 64.37 65.82 65.54 65.35 65.09 64.66 64.67 64.94 65.03 65.70 65.20 65.19 67.51 62.50 62.31 62.86 64.38 69.19 69.05 69.03 71.21 71.48 71.46 71.55 71.69
67.80 69.63 71.69 71.28 71.00 70.28 71.55 70.54 69.87 69.68 67.54 65.98 65.27 64.29 61.87 59.76 60.00 61.76 63.10 64.56 64.28 63.82 63.32 62.59 61.38 60.09 60.11 55.00 53.91 59.39 61.06 60.08 60.00 60.91 63.06 67.43 67.03 66.77 67.10 68.73 69.23 69.67 70.17
65.83 68.38 71.05 70.66 70.60 69.75 69.83 69.30 68.23 66.82 65.30 63.68 63.07 61.80 60.56 59.32 59.12 59.02 56.79 57.21 53.25 58.71 52.18 53.53 51.97 49.33 50.21 50.59 50.53 50.85 58.04 56.81 56.57 58.42 63.23 66.40 66.57 66.47 66.09 66.20 67.01 67.55 68.33
60.97 64.07 69.49 70.74 70.18 69.24 68.92 69.02 68.48 66.63 64.62 62.42 61.75 60.97 58.68 56.52 56.81 55.01 54.07 52.87 50.08 50.77 48.67 47.90 46.16 46.71 46.22 47.07 44.99 45.76 52.92 53.78 54.06 55.22 59.66 63.98 64.81 65.29 64.68 64.46 64.78 65.05 66.20
60.89 62.10 64.34 70.03 69.55 68.93 67.56 68.14 67.18 66.35 65.01 63.56 60.54 59.20 56.49 54.69 54.50 52.81 51.16 50.13 48.24 47.21 47.24 46.00 45.10 45.83 43.69 43.59 43.83 43.48 46.32 51.06 51.21 52.19 52.50 60.88 61.97 62.05 61.80 61.83 62.47 62.95 63.09
54.19 56.19 60.94 67.52 68.93 68.61 66.86 67.00 65.99 65.52 64.70 62.15 60.14 58.57 55.86 55.33 54.19 51.94 49.84 49.75 48.67 46.87 45.80 45.28 44.86 44.09 43.15 42.90 43.67 44.18 43.49 48.58 48.96 49.18 50.14 52.19 58.26 58.34 58.12 58.12 58.72 59.83 60.71
51.44 53.41 53.79 60.18 64.77 66.75 66.53 66.42 65.33 64.15 63.21 60.26 58.65 57.46 55.46 54.63 53.21 52.01 50.02 48.08 47.57 46.31 46.13 44.87 43.91 43.36 42.80 44.00 42.37 42.84 43.73 43.20 47.46 47.80 48.88 49.34 52.37 56.86 55.98 55.46 55.67 56.89 57.44
50.38 51.09 52.95 55.16 54.42 59.90 61.50 63.09 64.03 62.65 61.48 59.70 56.96 55.46 54.50 53.99 52.99 49.90 49.22 48.01 47.65 46.34 45.61 44.32 43.17 42.78 42.49 42.22 41.41 42.31 42.29 43.11 42.73 46.18 48.00 48.54 48.91 50.35 54.33 54.69 54.28 54.20 54.69
49.53 49.81 50.85 52.64 53.22 53.65 57.68 58.82 59.16 59.73 56.25 56.38 53.63 53.31 53.06 53.61 52.91 50.73 49.61 49.19 47.78 46.29 44.87 44.51 43.27 42.79 42.20 42.23 42.97 42.27 41.81 41.98 42.53 45.16 45.68 47.12 47.45 48.51 48.34 54.50 54.73 54.41 54.72
47.99 48.74 49.51 50.77 51.48 53.27 53.80 53.80 55.87 56.73 56.61 53.73 52.50 52.64 51.99 52.88 52.59 50.97 49.56 48.75 47.62 46.01 44.74 43.81 43.47 43.08 42.72 42.67 46.51 44.60 40.53 41.34 41.90 41.61 42.64 46.18 45.40 46.62 47.00 46.07 46.33 47.24 55.03
47.61 46.99 46.53 48.85 48.75 51.27 52.26 51.95 52.14 52.14 56.72 56.17 54.18 53.23 52.25 51.71 52.31 50.63 49.76 48.44 47.60 47.33 46.29 44.50 43.44 43.01 42.36 41.94 41.20 40.86 40.85 40.91 40.21 41.15 41.37 42.41 43.97 45.25 44.87 45.27 44.60 44.50 46.02
44.99 45.92 46.91 46.77 48.36 48.80 49.48 49.15 49.04 49.28 52.95 54.85 55.50 53.17 53.36 52.47 51.21 51.38 50.57 49.60 48.38 46.58 44.68 44.42 43.72 41.82 41.76 41.53 39.82 37.67 37.43 39.57 39.66 40.52 40.32 42.24 41.92 43.91 44.57 45.10 44.23 44.13 44.29
43.83 44.31 46.17 46.60 47.68 48.18 48.48 48.82 49.71 50.06 50.52 50.72 52.19 54.03 53.60 51.74 52.66 52.77 50.67 50.30 48.82 48.45 47.14 45.66 44.08 43.09 41.67 41.34 40.31 39.57 35.11 35.95 36.94 38.69 38.57 40.43 40.61 40.83 42.65 42.93 43.31 43.29 43.04
43.38 44.52 45.29 46.14 46.57 48.93 47.56 46.95 46.18 46.17 46.25 47.49 48.88 51.90 53.67 52.55 50.98 51.98 52.00 51.56 50.06 48.91 47.52 46.96 46.23 43.69 42.36 41.25 40.53 42.05 38.56 38.06 36.48 36.32 38.33 38.64 38.98 40.26 39.83 41.08 41.89 41.99 42.03
43.25 43.06 43.82 44.85 45.83 46.68 45.71 45.42 44.92 44.07 46.30 47.12 47.30 47.59 48.99 52.20 52.08 52.79 52.42 50.68 50.66 50.22 49.03 47.96 45.97 43.49 42.92 41.64 40.63 38.01 36.89 36.38 35.43 35.19 34.63 36.89 38.38 39.24 39.75 40.27 40.63 40.50 41.00
42.53 42.60 43.15 43.66 44.21 45.68 44.86 44.75 43.99 43.19 44.95 45.19 45.60 45.81 47.60 49.01 51.17 50.85 51.19 51.19 50.91 50.00 50.18 47.70 47.80 46.35 45.50 42.30 41.13 39.80 38.82 38.13 36.55 35.75 33.69 34.38 36.15 38.02 38.56 39.21 39.32 40.23 41.21

GFSSE_sfc_wetblb_033.txt.gz
Wetbulb
69.87 72.78 76.22 76.03 75.68 76.43 76.49 76.96 77.05 76.71 76.29 76.37 76.02 76.04 75.67 75.16 75.11 75.62 75.75 75.70 75.76 75.34 76.05 76.02 75.87 75.95 75.23 75.24 75.06 75.44 75.24 75.36 75.79 75.72 75.52 75.88 75.76 75.47 75.18 74.68 73.92 72.00 73.44
71.39 74.20 76.79 76.26 75.85 76.30 76.45 76.31 75.94 76.04 75.85 75.63 75.01 75.02 74.96 75.14 75.49 75.31 75.44 75.51 75.41 75.22 75.23 75.83 75.58 75.57 74.87 74.96 75.08 74.88 75.01 75.21 75.08 75.06 74.78 74.55 75.01 75.14 74.87 74.27 73.84 72.61 73.52
72.23 74.50 75.40 76.40 75.71 76.07 76.00 75.84 75.67 75.47 75.17 75.09 74.84 74.45 74.19 74.34 74.64 74.88 74.92 74.25 74.63 75.24 74.83 75.17 75.23 75.24 74.77 74.80 74.85 74.83 74.89 74.88 74.65 74.53 74.28 72.18 72.70 74.66 74.29 73.95 73.90 73.53 73.34
73.34 74.19 74.64 76.40 75.78 75.82 75.68 75.33 74.91 74.73 74.47 74.39 74.15 73.77 73.26 73.43 73.57 73.37 74.00 74.59 74.53 74.70 74.59 74.44 74.87 75.11 74.57 74.92 74.78 74.70 74.82 74.57 74.43 73.71 71.33 71.65 72.43 74.15 74.04 73.56 73.33 73.48 73.27
72.53 74.49 74.65 76.71 75.95 76.03 75.42 75.00 74.47 74.15 73.76 73.29 72.74 72.64 72.07 72.75 72.95 72.22 73.37 72.83 73.20 74.74 74.90 74.35 74.12 74.72 74.62 74.78 74.78 74.92 75.13 74.91 74.10 72.28 70.68 70.42 70.98 73.07 73.64 73.41 73.12 72.92 72.85
72.17 73.47 74.99 76.59 75.61 75.29 74.37 74.66 73.94 73.55 73.06 71.90 71.07 70.86 70.72 71.44 71.38 70.78 71.93 72.48 71.90 71.23 71.84 72.88 73.79 74.49 74.32 74.53 75.58 74.89 75.09 74.69 72.69 70.42 70.47 72.14 70.62 73.37 73.47 72.86 72.69 72.59 72.61
71.33 72.96 74.53 76.57 76.35 76.25 75.01 74.55 73.62 72.55 71.75 71.14 71.07 70.28 70.16 70.45 70.24 69.46 69.94 70.63 70.74 70.78 70.80 70.55 71.62 73.92 73.96 74.06 74.16 74.88 74.38 72.70 68.68 68.23 68.36 68.89 70.63 73.28 72.91 72.49 72.30 72.20 72.38
71.37 72.62 74.64 76.97 77.07 76.57 75.24 74.28 73.66 72.03 71.54 71.26 70.78 70.15 69.62 69.32 69.35 68.73 68.25 68.96 69.56 69.76 69.70 69.83 70.63 73.00 73.64 73.57 73.22 74.24 73.29 71.84 69.20 67.99 68.16 68.24 71.61 72.21 72.61 72.36 71.72 71.82 71.83
71.88 72.78 74.01 74.68 75.61 76.68 76.05 75.07 73.85 72.86 71.57 70.95 70.38 69.89 69.41 68.66 68.37 67.96 67.57 67.12 67.43 67.88 68.40 69.19 70.22 71.86 73.57 72.54 72.55 73.29 72.21 70.10 65.77 66.01 68.39 68.85 72.51 72.47 72.29 72.13 72.25 71.80 71.84
71.37 72.40 72.66 73.54 74.22 73.85 73.69 75.56 73.94 73.04 72.37 70.80 70.51 69.96 69.48 68.41 67.73 67.58 67.04 66.46 66.26 66.51 66.57 67.32 69.13 70.51 70.77 70.13 69.90 68.96 70.29 68.09 64.28 64.79 65.20 67.91 70.75 71.04 72.68 72.37 72.36 72.22 71.79
70.97 70.90 72.27 73.22 72.99 72.36 71.66 73.18 74.19 73.11 72.68 71.22 70.58 70.28 68.16 62.80 62.07 63.39 64.65 65.78 65.46 65.40 65.53 65.31 66.08 67.09 66.63 65.87 65.44 65.87 67.00 62.69 62.99 63.58 64.51 69.54 68.83 68.79 70.78 71.24 71.50 71.70 71.34
68.46 70.07 72.75 72.86 71.90 70.80 71.93 70.83 70.14 69.54 68.02 66.99 66.56 64.79 62.60 60.44 60.13 61.92 62.93 65.02 64.68 64.41 64.08 63.38 62.65 61.61 60.18 54.49 53.15 63.24 61.32 60.78 61.02 61.88 63.63 67.69 66.71 66.29 66.79 68.77 69.69 70.11 70.64
66.64 69.22 71.78 71.35 71.20 70.54 70.55 69.94 69.86 67.69 66.91 65.51 64.51 63.06 61.33 59.72 59.00 59.93 57.81 56.93 53.81 58.52 52.15 53.34 50.84 48.97 50.29 50.80 50.17 54.87 58.69 57.81 57.85 59.45 64.03 66.52 66.15 65.62 65.47 66.03 67.79 67.97 68.72
59.64 64.37 69.02 70.76 70.21 69.87 69.97 69.49 69.45 67.58 66.83 64.95 64.06 62.32 60.67 57.69 57.18 56.71 55.41 54.38 51.30 50.39 48.13 47.36 45.63 45.95 45.62 46.98 45.96 50.60 54.85 54.54 55.33 56.48 59.93 64.67 65.58 65.40 64.88 64.76 65.34 65.38 66.91
50.91 52.18 58.15 69.09 69.29 68.84 68.39 68.35 68.63 67.92 67.12 65.78 63.42 62.25 61.09 58.43 57.14 55.90 53.77 51.99 49.22 47.44 47.66 46.01 44.43 44.47 42.83 42.43 42.77 45.58 52.12 52.01 52.25 53.57 53.64 62.10 63.47 63.71 62.99 62.61 63.06 63.37 63.53
48.94 50.89 53.12 58.46 69.38 68.79 67.86 66.45 66.48 66.62 66.12 64.54 62.90 61.89 60.19 58.41 56.65 55.66 52.42 50.23 48.46 46.67 45.98 44.77 44.22 43.14 42.00 41.39 42.38 42.42 47.49 49.69 49.95 49.69 50.33 52.45 59.93 60.24 59.57 59.07 59.73 60.52 61.43
47.78 49.59 51.90 53.66 56.97 64.67 66.16 65.67 65.64 64.44 64.60 62.65 61.31 59.29 58.31 56.81 55.68 55.53 52.75 48.86 48.70 47.50 46.23 44.06 43.07 42.43 41.54 42.60 40.70 41.26 42.69 47.12 47.80 47.48 48.60 49.05 52.36 58.01 57.01 56.48 56.96 57.77 57.99
46.60 46.99 50.22 52.97 52.69 52.75 55.56 61.54 64.23 63.13 61.58 60.85 58.50 56.61 56.24 56.15 54.78 53.50 52.60 50.72 48.92 47.03 45.47 44.00 43.00 42.31 41.54 40.68 40.12 40.93 40.59 41.44 43.59 45.91 47.11 48.07 48.86 50.25 54.73 55.65 55.56 55.55 55.87
45.96 45.44 48.10 49.60 50.25 50.75 50.67 52.47 55.30 57.19 58.66 58.04 55.99 54.13 55.44 55.45 53.83 52.76 52.11 51.24 48.41 46.44 44.64 44.33 42.09 42.36 41.40 41.19 41.60 40.92 40.36 40.38 41.11 44.53 45.51 46.78 47.46 49.10 48.23 54.66 55.43 54.99 55.29
45.55 45.60 46.06 48.04 48.19 49.35 50.23 50.54 51.26 52.14 53.89 52.88 51.63 52.87 53.26 53.19 53.76 52.33 49.73 48.76 47.84 46.17 44.62 43.03 42.47 41.34 41.60 41.63 44.97 43.96 40.27 40.28 40.49 40.39 42.28 46.03 45.94 47.30 46.92 46.56 46.67 48.60 55.28
44.31 43.93 44.78 47.16 46.88 48.02 49.16 48.00 48.38 47.97 50.49 52.17 52.92 52.73 52.00 50.73 52.27 50.12 50.26 48.95 47.31 47.41 46.97 44.57 42.63 42.03 41.04 40.80 40.84 40.15 39.98 40.43 38.83 39.90 40.09 41.27 43.41 44.80 44.49 45.48 44.24 43.83 45.08
42.06 42.69 43.33 44.63 45.99 46.87 46.90 46.80 46.88 46.76 49.17 51.97 53.40 54.43 54.37 53.08 50.53 50.14 49.61 49.16 49.28 47.16 45.59 44.19 43.28 41.17 41.41 40.99 39.88 37.03 37.47 38.41 38.85 39.63 38.89 40.50 40.80 42.61 43.70 44.22 43.61 43.30 43.22
41.27 41.35 43.26 43.68 44.66 46.15 45.72 46.45 46.38 46.19 46.80 47.40 48.17 51.01 51.93 53.72 53.14 51.59 50.40 50.07 49.04 49.51 48.50 46.29 45.49 43.37 41.65 40.12 40.07 40.09 34.36 34.84 35.51 37.54 37.41 38.92 39.89 39.64 41.71 42.89 43.24 43.54 42.84
41.37 41.76 42.38 43.31 43.74 46.63 44.53 43.89 43.10 42.98 43.08 45.38 45.71 47.16 47.96 49.94 51.02 52.88 51.36 50.35 50.28 48.42 48.91 48.51 47.89 47.24 43.55 41.37 39.61 41.12 37.49 37.54 36.51 35.97 37.42 37.46 38.39 39.17 39.16 40.69 41.89 41.75 41.41
41.64 41.10 41.52 42.51 43.19 44.04 43.09 42.12 41.52 40.93 42.89 45.16 45.52 45.56 46.18 47.17 48.71 50.29 50.06 48.90 50.28 48.78 49.09 49.81 48.00 45.86 46.93 42.94 41.16 37.51 35.86 35.24 34.32 35.03 35.31 36.46 37.07 37.86 38.46 38.95 40.14 40.26 40.57
41.38 41.08 41.36 41.83 42.44 42.66 42.45 41.81 40.77 39.72 40.05 41.84 43.93 44.03 45.04 45.67 46.57 48.01 49.43 48.46 48.47 48.65 48.59 48.75 48.24 46.68 47.01 46.74 43.90 39.96 38.81 37.54 35.72 35.28 32.76 33.67 35.45 37.46 37.47 38.08 38.08 38.85 39.63

GFSSE_sfc_wetblb_036.txt.gz
Wetbulb
69.26 71.19 76.01 76.50 75.73 75.77 76.09 76.35 76.78 76.32 76.15 75.94 75.88 76.10 74.84 73.96 74.76 75.59 75.50 75.77 75.24 75.95 75.92 75.90 76.10 75.25 75.10 74.83 74.85 75.47 75.95 76.23 76.12 76.10 76.02 76.19 76.19 75.20 74.68 74.03 73.65 72.24 72.78
70.55 72.93 75.95 75.73 75.85 75.60 75.56 77.01 75.64 75.18 75.87 74.86 74.20 73.91 74.04 73.85 73.92 75.04 75.38 75.27 75.21 75.12 75.76 75.58 75.62 74.85 74.53 74.59 74.56 75.05 75.25 75.37 75.26 75.27 75.06 75.45 75.28 75.13 74.17 74.00 73.92 72.67 72.78
71.13 73.96 74.38 75.53 75.85 75.50 75.49 75.26 74.81 74.68 74.72 74.58 73.98 73.34 73.70 73.78 74.80 74.72 73.94 73.90 75.26 74.75 75.09 75.21 75.05 74.54 74.72 74.93 74.83 74.90 75.03 74.88 74.84 74.58 74.32 72.53 73.37 74.40 74.25 73.84 73.96 73.74 73.03
72.66 73.94 73.99 75.70 76.23 75.46 75.11 74.76 74.54 74.61 74.62 74.51 73.59 73.15 72.79 72.73 72.85 72.49 73.99 74.45 73.88 74.72 74.41 74.83 75.01 74.39 74.87 74.87 74.75 74.89 74.74 74.57 74.29 73.90 71.71 72.02 72.56 74.17 73.86 73.33 73.36 73.17 73.07
72.67 73.82 74.06 75.38 75.62 75.85 74.64 74.17 74.30 74.16 73.94 73.64 73.19 72.54 71.59 72.01 72.19 71.64 72.75 72.20 73.20 74.46 74.30 74.16 74.51 74.31 74.70 74.46 75.17 74.96 74.95 74.68 73.88 71.93 70.82 70.97 71.49 73.10 73.49 73.32 72.89 73.06 72.58
71.87 72.97 74.82 76.14 75.81 75.22 74.49 73.79 74.17 73.82 73.24 72.47 71.31 70.67 70.37 70.94 70.95 70.84 71.76 70.95 71.26 71.68 72.39 72.70 73.80 74.47 74.32 74.53 75.31 75.05 75.39 74.32 72.52 70.64 70.91 72.07 71.13 73.40 73.40 72.92 72.60 72.71 72.39
71.39 72.60 74.37 75.95 75.76 75.46 75.40 74.10 74.00 73.36 72.56 71.01 70.39 69.71 69.55 69.85 69.60 68.65 69.98 70.50 70.38 70.15 70.28 70.44 71.81 73.77 73.79 74.07 74.42 74.97 74.37 72.66 68.91 68.58 68.86 69.72 71.33 72.95 72.84 72.51 72.20 72.23 72.37
71.50 72.58 73.80 76.13 76.05 75.97 74.78 74.22 74.01 72.98 71.82 71.09 70.72 69.65 69.02 69.16 68.99 68.11 67.69 68.67 69.04 69.31 69.73 69.94 70.97 72.50 73.50 73.12 73.07 74.35 72.88 71.50 68.86 67.75 67.81 68.52 72.23 72.33 72.72 72.02 71.59 71.56 71.71
71.35 71.64 72.81 74.15 75.65 76.89 75.89 74.17 74.04 72.90 71.82 71.55 70.74 69.99 69.00 68.25 68.09 67.61 67.07 66.67 67.13 67.53 68.01 68.82 69.63 72.54 73.27 72.71 73.23 73.09 72.07 70.03 66.18 67.18 68.84 68.34 72.49 72.21 71.86 72.18 71.88 71.71 71.65
69.98 71.54 71.85 72.81 73.83 73.62 73.25 75.42 74.43 73.47 72.00 71.55 70.71 69.93 69.46 68.21 67.50 67.14 66.56 66.05 65.84 66.02 66.02 66.73 68.46 70.93 71.14 70.99 70.37 69.83 70.24 68.22 64.43 65.08 66.17 68.38 70.87 71.37 72.33 71.98 71.66 72.06 72.02
69.82 69.38 70.46 71.72 72.19 72.40 72.11 73.32 74.65 73.94 73.10 71.63 70.93 70.59 68.59 63.06 61.74 62.46 65.41 65.44 65.25 64.94 65.18 65.06 65.79 67.94 66.89 64.39 66.76 67.31 66.23 63.13 63.43 63.80 64.71 69.78 68.71 69.11 70.15 70.85 71.34 71.38 71.27
66.53 69.79 70.30 71.59 72.37 70.81 72.95 71.14 70.91 70.12 69.53 67.92 67.12 66.13 63.34 61.59 60.58 62.26 63.34 64.80 64.89 64.25 64.09 63.70 63.05 62.10 58.82 54.04 53.97 64.26 62.68 61.73 61.99 62.46 63.97 67.80 67.00 66.95 67.27 68.29 69.48 69.94 70.78
56.79 67.18 70.99 71.92 72.08 71.63 71.42 69.09 68.79 67.98 66.90 66.02 65.13 63.58 62.12 60.89 60.42 60.99 58.44 57.43 55.19 57.85 53.02 52.25 50.26 48.31 48.77 50.63 50.39 57.85 59.41 58.78 59.02 60.40 64.10 66.64 66.21 65.71 65.55 66.22 67.73 68.60 69.81
49.57 50.64 55.37 69.53 71.52 71.16 70.68 68.78 68.28 67.01 65.94 64.57 63.65 62.26 60.31 58.43 57.17 57.58 56.98 55.46 53.26 50.62 48.93 47.59 45.82 44.97 45.17 46.13 46.25 54.44 55.88 55.83 56.43 57.54 60.01 65.00 65.65 65.24 64.69 65.01 65.82 66.20 67.69
47.73 49.84 51.55 53.11 68.60 70.88 69.94 67.68 67.96 68.17 66.38 64.85 63.22 62.22 60.70 58.29 56.47 55.99 55.66 54.03 52.28 48.86 47.95 45.86 44.68 43.78 43.21 41.99 42.93 47.71 53.02 53.02 53.28 54.67 55.12 62.54 64.07 64.51 64.14 63.38 63.84 64.05 64.20
46.01 48.26 50.93 52.48 61.15 69.48 68.30 66.54 66.67 67.76 66.84 65.07 62.93 62.16 61.00 59.35 56.73 55.89 54.85 52.67 50.34 46.96 46.80 46.13 44.47 43.02 42.32 40.56 41.77 42.30 48.98 50.57 51.16 51.32 51.39 52.72 61.49 62.16 61.75 60.75 60.81 61.50 62.43
45.05 46.37 49.43 52.05 51.82 53.43 61.84 66.87 66.66 65.31 65.42 63.93 62.79 61.74 60.80 59.23 57.22 56.41 54.95 52.12 49.55 47.16 45.76 43.88 42.42 41.63 41.26 41.68 40.05 40.81 42.97 48.26 48.94 48.27 48.95 49.64 52.61 59.71 58.90 58.29 58.54 59.25 59.33
44.00 44.32 47.95 50.29 50.15 49.95 49.77 53.68 62.22 64.50 63.92 62.85 61.70 60.30 60.56 60.42 58.69 57.20 55.46 55.33 51.16 48.05 46.25 43.89 42.65 41.88 41.27 40.60 39.95 40.12 40.12 41.31 45.59 46.02 46.94 47.84 49.18 50.88 55.79 57.00 56.58 57.02 57.75
43.44 43.65 45.83 46.95 47.96 48.42 48.54 49.84 50.69 52.46 54.48 56.47 57.30 56.82 57.91 58.58 58.32 57.37 55.23 54.44 51.93 50.22 46.65 44.65 42.78 42.17 41.13 40.52 40.95 39.99 39.55 39.65 40.61 44.21 44.96 46.35 47.58 50.01 48.91 54.79 56.41 56.18 56.21
42.65 42.87 43.83 45.50 45.74 46.98 47.09 47.81 49.01 49.64 50.63 51.33 51.48 51.11 52.41 54.40 55.97 53.24 53.02 51.41 51.11 48.14 46.08 44.00 43.62 41.53 41.69 41.47 44.08 43.20 40.02 40.06 39.85 39.73 40.89 45.74 46.11 47.75 47.74 47.79 48.80 50.17 56.37
41.67 41.59 41.56 44.32 44.53 45.05 45.28 44.96 45.37 46.02 47.88 49.26 50.48 52.22 51.94 51.02 50.64 52.66 51.94 49.39 47.91 48.43 49.04 46.31 42.54 42.20 40.99 40.53 40.57 39.80 39.83 40.06 39.05 39.27 39.82 40.75 43.92 45.36 45.83 46.47 45.78 45.40 46.54
40.07 40.43 41.27 42.48 44.45 44.23 44.56 44.41 44.23 44.01 46.26 47.87 48.26 49.61 50.94 52.85 53.05 51.30 51.59 52.04 48.55 47.35 45.87 44.72 44.88 42.99 41.55 41.51 40.23 37.56 38.22 39.29 38.31 39.35 38.27 39.71 40.21 42.92 44.02 44.52 44.35 43.86 43.86
39.86 39.46 41.20 42.16 43.57 43.99 43.43 43.93 44.04 43.51 43.67 44.61 45.48 46.67 47.49 48.61 49.89 51.03 51.30 50.73 50.25 47.17 47.00 44.70 44.22 43.46 45.31 42.00 42.41 41.58 35.21 35.83 35.16 37.66 37.06 38.21 39.31 39.32 41.28 42.79 43.29 43.72 43.28
40.55 40.33 40.91 41.81 42.25 44.47 42.47 41.60 40.05 40.04 39.64 42.39 43.39 45.26 45.72 47.00 47.09 47.95 48.84 48.54 47.85 48.21 46.08 46.96 46.32 45.71 43.59 43.33 41.92 42.87 38.63 37.78 36.98 36.88 37.50 37.15 37.70 39.10 38.99 40.63 42.62 42.80 42.96
40.62 39.99 39.96 40.84 41.64 41.90 41.17 40.34 39.73 38.90 39.45 41.23 42.54 43.22 44.67 45.20 45.83 46.96 47.46 47.26 46.92 46.66 46.96 49.08 46.46 45.20 45.40 45.93 41.44 39.06 39.48 36.32 34.71 36.28 36.13 37.17 36.98 37.49 38.76 39.29 40.68 41.22 41.38
39.91 40.11 40.25 39.96 40.97 41.16 40.40 40.03 39.16 38.26 38.55 39.16 40.45 42.84 44.06 44.06 44.65 45.83 46.88 46.29 46.01 45.96 45.95 46.74 47.32 45.04 46.47 45.96 44.54 41.98 39.42 40.00 36.13 35.18 33.93 34.66 36.57 37.91 37.61 38.23 38.46 39.55 40.55